Retour au catalogue

HIMAWARI 5

GMS 5

ActifMétéoGEO
NORAD 23522·PAYLOAD·🇯🇵 Japan

Lancé Mar 18, 1995 depuis Tanegashima Space Center

Loading…

TLE

FraisSource: Space-Track

Époque: Sep 13, 2026, 17:18 UTC

1 23522U 95011B   26256.72128163 -.00000297  00000-0  00000-0 0  9990
2 23522  14.3333   3.7738 0007374 169.4631 199.2658  0.99405577114486

Suivez HIMAWARI 5 en temps réel avec AllMySat

Download on the App Store